Location: Palermo
(38.1157°N, 13.3613°E)
Time: 09:17:26
(UTC+01:00)

ISS - Visible Passes

Search period start: 04 March 2024 00:00
Search period end: 14 March 2024 00:00
Orbit: 414 x 422 km, 51.6° (Epoch: 04 March)

Date Brightness Start Highest point End Pass type
(mag) Time Alt. Az. Time Alt. Az. Time Alt. Az.
04 Mar -1.1 04:36:46 14° N 04:37:26 14° NNE 04:39:21 10° NE visible
05 Mar -2.5 05:23:46 12° NW 05:26:40 39° NE 05:29:52 10° ESE visible
06 Mar -1.9 04:37:55 24° N 04:38:30 26° NNE 04:41:23 10° E visible
07 Mar -0.4 03:52:10 12° ENE 03:52:10 12° ENE 03:52:42 10° ENE visible
07 Mar -3.8 05:25:07 20° WNW 05:27:19 69° SW 05:30:40 10° SE visible
08 Mar -3.3 04:39:30 61° ENE 04:39:30 61° ENE 04:42:33 10° ESE visible
09 Mar -0.4 03:54:02 11° ESE 03:54:02 11° ESE 03:54:12 10° ESE visible
09 Mar -2.4 05:27:00 20° WSW 05:27:37 21° SW 05:30:15 10° S visible
10 Mar -1.6 04:41:42 18° SSE 04:41:42 18° SSE 04:42:43 10° SSE visible
12 Mar -3.1 19:41:21 10° SSW 19:43:55 41° S 19:43:55 41° S visible
13 Mar -2.6 18:53:33 10° SSW 18:56:24 26° SE 18:58:35 14° E visible
13 Mar -1.2 20:30:03 10° W 20:31:33 21° WNW 20:31:33 21° WNW visible
